This is the latest recevied weather packets stored in our database for station/object KE8WMS. If no packets are shown the sender has not sent any weather packets the latest 10 day(s).
| Time | Temp. | Humidity | Pressure | Rain* | Wind** | Luminosity | Snow |
|---|---|---|---|---|---|---|---|
| 1777724091 | 2.22° C | 99% | 1014.5 hPa | 0 mm | - | 31 W/m² | - |
| 1777723788 | 2.22° C | 99% | 1014.4 hPa | 1.27 mm | - | 36 W/m² | - |
| 1777723484 | 2.22° C | 99% | 1014.4 hPa | 1.27 mm | - | 40 W/m² | - |
| 1777723182 | 2.22° C | 99% | 1013.9 hPa | 0 mm | - | 28 W/m² | - |
| 1777722879 | 2.22° C | 99% | 1013.6 hPa | 0 mm | - | 32 W/m² | - |
| 1777722575 | 1.67° C | 99% | 1013.7 hPa | 0 mm | - | 23 W/m² | - |
| 1777722272 | 1.67° C | 99% | 1013.5 hPa | 1.78 mm | - | 21 W/m² | - |
| 1777721969 | 1.67° C | 99% | 1014 hPa | 3.56 mm | - | 21 W/m² | - |
| 1777721666 | 1.67° C | 99% | 1014.4 hPa | 4.83 mm | - | 17 W/m² | - |
| 1777721365 | 1.11° C | 99% | 1014.2 hPa | 4.32 mm | - | 15 W/m² | - |
| 1777721062 | 1.11° C | 99% | 1014.4 hPa | 4.32 mm | - | 11 W/m² | - |
| 1777720760 | 1.11° C | 99% | 1014.3 hPa | 6.1 mm | - | 9 W/m² | - |
| 1777720456 | 1.67° C | 99% | 1014.4 hPa | 6.1 mm | - | 6 W/m² | - |
| 1777720154 | 2.22° C | 99% | 1014.4 hPa | 4.83 mm | - | 4 W/m² | - |
| 1777719852 | 2.22° C | 99% | 1014.2 hPa | 3.05 mm | - | 5 W/m² | - |
| 1777719549 | 2.78° C | 99% | 1014.3 hPa | 1.27 mm | - | 4 W/m² | - |
| 1777719246 | 3.33° C | 99% | 1014.1 hPa | 0 mm | - | 2 W/m² | - |
| 1777718944 | 3.33° C | 99% | 1013.9 hPa | 0 mm | - | 2 W/m² | - |
| 1777718641 | 3.33° C | 99% | 1014.1 hPa | 0 mm | - | 2 W/m² | - |
| 1777718338 | 3.33° C | 99% | 1013.7 hPa | 0 mm | - | 1 W/m² | - |
| 1777718035 | 3.33° C | 99% | 1013.5 hPa | 0 mm | - | 1 W/m² | - |
| 1777717732 | 3.33° C | 99% | 1013.6 hPa | 0 mm | - | 1 W/m² | - |
| 1777717429 | 3.33° C | 99% | 1013.4 hPa | 0 mm | - | 0 W/m² | - |
| 1777717126 | 3.33° C | 99% | 1013.4 hPa | 0 mm | - | 0 W/m² | - |
| 1777716824 | 3.33° C | 99% | 1013.5 hPa | 0 mm | - | 0 W/m² | - |
* Rain latest hour (hover to see other rain measurements)
** Current wind speed in m/s (hover to see current wind gust speed)